RH
65 48 50 64 45 31 38 44 36 43 44 41 40 38 48 48 53 62 43 42 43 47 53 62 83 82 81 80 79 75 75 75 72 70 70 70 71 72 70 68 73 73 70 69 66 68 66 65 67
43 58 53 41 45 40 46 35 39 39 42 40 41 42 45 68 52 49 46 43 42 45 52 58 86 83 81 79 80 75 74 74 72 71 71 70 71 68 70 74 74 72 70 68 67 66 66 67 67
52 56 47 33 29 39 46 39 40 41 40 40 46 40 45 64 48 49 40 40 37 42 53 66 85 84 80 79 77 76 74 73 71 70 69 70 69 72 71 69 70 68 68 67 67 69 69 68 68
48 47 36 36 36 36 34 36 38 40 40 40 39 51 52 45 49 44 39 39 38 42 50 71 81 80 78 77 76 75 74 73 71 70 68 68 69 71 69 68 67 67 65 66 68 68 69 69 70
38 37 32 32 35 33 30 33 34 39 43 42 40 52 63 53 43 39 40 37 36 44 56 60 83 81 79 78 77 76 75 73 70 68 68 70 69 69 69 66 66 65 65 67 68 69 70 71 72
41 32 34 35 35 33 32 33 33 35 39 42 41 47 66 50 44 40 36 37 37 42 76 74 80 80 80 78 76 74 72 70 69 68 69 69 69 68 68 66 66 66 67 69 70 71 71 72 74
35 25 30 30 35 34 33 31 30 32 38 40 38 50 62 53 40 37 40 45 44 43 60 79 79 72 76 74 72 70 69 69 71 69 70 68 65 67 67 67 67 69 70 71 71 72 74 75 76
30 22 29 25 26 33 31 32 29 32 39 36 36 49 62 52 41 36 37 41 43 50 51 74 82 84 66 66 72 71 72 71 72 70 69 70 70 71 70 71 71 72 72 72 73 74 74 76 76
32 24 26 25 25 30 29 33 30 34 37 41 43 38 38 44 42 41 41 47 50 57 51 66 82 93 83 74 79 74 71 68 71 68 74 73 42 44 47 65 72 74 71 71 71 72 74 73 73
27 21 25 23 20 24 28 29 35 36 40 47 49 39 42 44 51 46 45 52 51 57 56 56 71 83 87 79 75 86 81 43 47 50 56 47 49 46 49 58 70 70 69 65 66 68 70 61 30
27 23 25 24 21 22 27 29 30 31 35 34 45 46 47 48 52 47 44 43 43 43 47 45 48 73 66 96 96 97 95 82 49 58 54 52 46 41 34 34 36 38 56 34 37 34 32 37 38
28 27 27 26 26 23 28 28 30 30 32 29 36 41 48 48 44 43 41 42 47 49 49 50 60 58 73 90 93 94 92 93 52 43 54 52 41 39 41 36 39 39 35 37 37 34 38 39 49
28 26 25 24 25 23 27 30 29 32 32 34 39 42 47 46 44 40 38 39 41 46 48 48 56 61 62 70 73 69 83 51 45 46 47 43 40 45 39 39 37 40 36 35 37 38 38 44 47
28 27 24 22 25 26 28 29 28 32 32 38 42 42 41 44 44 42 41 41 42 43 45 47 60 61 60 63 70 90 72 48 59 57 43 55 43 47 39 40 38 41 40 38 40 41 43 46 46
28 26 23 27 26 28 26 32 31 30 32 38 38 38 38 40 41 44 41 40 40 41 45 52 60 62 64 60 72 61 72 41 57 86 60 55 51 53 53 41 39 40 44 46 39 40 42 43 42
26 24 28 26 26 27 29 33 27 28 31 34 36 37 38 39 39 41 40 41 41 43 52 51 53 58 64 54 58 53 61 50 50 53 54 55 54 57 53 40 40 46 44 39 38 44 44 45 45
27 32 34 32 26 28 30 31 25 26 29 30 33 36 36 39 40 40 40 42 40 44 51 54 54 54 63 67 61 56 57 51 44 48 56 58 53 51 49 41 44 48 42 42 40 43 62 45 47
35 32 32 32 29 27 27 28 23 24 27 28 30 33 38 37 38 38 39 41 42 45 50 54 53 59 67 74 72 60 62 49 47 48 54 67 50 54 53 45 51 47 43 43 46 57 59 60 45
32 33 32 30 28 32 29 27 24 22 27 28 27 30 36 44 36 36 38 39 44 47 51 56 58 61 63 64 64 59 56 55 49 50 65 58 55 58 62 46 50 50 50 59 55 46 66 70 50
30 30 30 29 31 32 28 28 23 22 23 27 27 28 31 41 37 39 38 38 42 48 52 59 60 63 64 64 60 58 58 53 48 48 59 61 59 59 58 66 51 58 46 60 62 61 82 64 58
26 27 29 31 30 31 38 32 28 22 22 23 25 24 25 30 37 45 51 48 41 48 53 58 63 64 65 62 66 70 64 66 59 55 60 56 62 61 62 60 58 59 54 43 60 55 64 79 68
27 26 28 34 33 30 33 30 22 22 23 22 22 24 24 26 27 35 42 43 36 43 49 55 62 64 64 66 63 74 62 60 52 52 47 53 63 62 58 60 60 62 50 59 52 44 61 83 71
27 25 25 30 29 30 29 28 20 28 21 19 20 20 21 23 25 27 38 36 35 46 45 50 63 66 65 68 67 66 66 55 67 54 60 63 65 66 61 68 62 63 53 56 62 58 63 75 80
23 27 25 25 25 29 30 27 19 17 18 17 18 22 23 21 23 27 28 33 39 49 54 48 63 70 68 70 71 71 68 71 61 76 58 51 46 52 77 75 71 67 60 59 55 58 65 80 77
25 22 26 28 29 28 27 27 22 15 15 17 18 22 23 23 22 24 31 32 45 53 51 47 60 69 68 70 69 71 70 75 76 78 87 63 44 42 57 78 79 59 68 60 60 66 67 75 78
23 22 25 36 28 22 29 27 18 14 14 15 18 20 24 25 22 24 29 33 42 45 47 49 56 67 65 69 70 71 71 61 81 83 85 69 48 50 54 63 73 69 63 62 65 55 63 70 64
26 29 21 22 17 23 20 20 15 14 13 13 14 18 22 26 25 27 29 33 38 41 51 51 56 59 60 60 66 67 70 67 65 74 80 86 63 48 58 60 68 69 66 66 66 73 78 79 60
22 19 24 20 32 34 21 26 20 16 14 12 12 14 19 24 28 27 27 30 33 38 42 47 51 56 55 53 59 59 59 65 63 67 74 73 76 61 59 66 67 67 65 66 73 75 70 70 55
23 25 22 17 19 26 24 18 14 16 12 12 11 11 14 20 25 28 28 28 30 36 38 46 48 52 52 54 59 61 57 56 66 64 68 72 76 65 68 72 70 73 76 81 80 70 72 70 67
15 18 16 21 22 20 20 17 10 10 9 13 14 13 14 20 22 26 27 30 30 35 36 41 45 45 47 53 66 62 60 58 59 65 65 76 83 63 68 72 74 76 81 82 76 72 65 67 63
Wind_Speed
9 6 3 5 6 3 12 8 7 9 5 4 3 3 11 12 10 11 16 11 16 16 15 14 13 14 15 15 14 13 13 13 12 10 9 8 8 8 8 8 7 8 8 8 9 8 6 5 5
2 2 6 5 2 7 8 7 8 6 8 9 8 6 4 7 9 17 14 18 17 17 13 15 13 14 15 14 14 13 12 11 11 10 8 6 6 6 7 6 7 7 7 8 8 8 7 6 5
4 5 5 3 3 8 10 10 10 10 7 1 5 7 4 6 16 11 17 19 18 17 14 14 15 14 15 15 14 13 12 11 9 7 6 6 5 6 6 6 6 7 7 8 9 9 9 9 9
3 5 5 1 14 8 13 9 7 7 6 2 7 10 9 12 12 10 20 17 16 17 14 16 15 15 15 14 13 12 11 10 9 7 5 4 4 5 5 5 6 7 8 8 8 8 9 9 9
5 4 4 12 13 9 10 9 6 3 4 6 1 10 11 7 11 19 18 16 16 16 12 15 14 14 14 14 12 11 10 9 7 6 4 4 5 5 5 5 6 6 6 7 7 8 9 9 10
5 5 8 9 12 9 7 6 4 8 7 8 13 14 8 8 16 16 16 15 15 17 7 11 14 15 14 13 12 10 9 9 7 4 4 4 4 4 5 5 5 5 6 7 8 9 10 11 12
5 4 11 9 10 8 7 5 3 8 8 8 7 8 8 14 17 17 16 13 12 16 14 9 11 14 13 11 11 10 9 7 6 4 3 3 3 3 4 4 4 5 6 8 9 10 11 12 12
4 1 8 6 8 10 7 5 7 4 9 10 5 7 10 14 18 16 17 17 17 13 15 12 8 7 10 10 11 10 9 7 5 4 2 1 2 3 3 5 0 6 7 9 10 10 11 11 9
3 3 9 8 5 8 10 6 5 2 11 3 3 6 18 21 17 15 15 16 13 12 15 14 10 7 7 10 6 8 8 7 7 8 4 8 2 1 4 5 4 7 7 7 6 7 8 11 11
5 2 7 4 4 4 9 5 7 6 8 6 7 10 20 20 16 17 16 15 15 15 14 15 10 9 7 4 7 2 3 5 3 3 1 1 0 2 6 2 3 5 5 4 4 6 10 10 9
1 6 2 3 3 1 7 6 3 2 7 7 11 19 20 19 16 16 16 17 17 17 13 16 15 11 12 7 3 1 1 4 3 4 3 2 3 1 1 1 1 1 4 4 3 6 8 10 8
4 1 1 3 3 7 7 2 3 1 8 2 14 20 19 18 18 17 16 14 14 14 15 13 13 13 12 7 5 3 2 2 5 3 4 1 3 0 2 3 2 2 5 5 7 6 8 9 7
2 2 2 3 6 6 7 3 2 4 7 11 17 19 19 17 15 14 15 15 15 16 15 16 15 13 12 12 8 7 4 4 5 5 3 2 2 1 2 1 3 4 4 5 7 8 8 7 6
2 2 1 6 8 6 7 3 5 10 10 14 17 18 18 18 18 14 13 15 15 15 15 15 14 14 13 11 11 5 5 7 4 4 2 3 3 1 1 1 2 4 5 7 7 7 6 5 7
3 5 7 4 6 3 5 6 7 11 12 14 15 14 15 16 17 16 15 15 16 15 15 14 14 14 15 13 10 7 6 7 4 4 4 3 4 2 2 1 3 4 4 5 6 7 3 6 5
4 4 4 5 5 3 8 6 8 10 13 14 15 14 14 15 16 14 14 13 15 14 14 15 13 15 14 13 11 8 8 8 6 7 4 4 4 2 3 1 2 4 3 4 6 6 6 5 6
6 3 3 5 4 1 11 9 3 12 14 14 15 16 14 14 15 15 14 13 14 15 15 15 14 14 14 11 10 9 9 9 5 5 4 5 4 4 4 1 3 3 3 5 6 6 5 4 5
6 4 1 2 4 9 11 14 11 10 14 15 16 17 16 16 18 16 16 15 14 15 15 15 14 15 13 10 9 8 6 8 6 5 4 5 4 4 5 3 0 4 2 4 7 6 5 5 5
1 4 6 2 2 7 10 13 11 8 14 16 17 18 19 18 16 16 16 15 15 15 16 17 16 15 12 10 10 10 10 8 7 6 8 6 5 5 4 3 3 4 2 4 6 5 4 1 0
4 7 4 1 1 7 9 13 14 14 14 17 17 19 20 19 19 18 18 18 16 17 16 16 16 15 14 10 10 9 9 9 9 7 7 9 9 6 5 4 3 1 4 2 4 5 2 0 0
7 7 6 7 3 8 9 17 13 13 10 13 17 19 20 20 22 19 15 16 19 18 17 17 17 16 16 14 8 7 7 6 7 8 8 8 9 9 7 5 5 3 5 3 3 4 5 2 1
6 4 3 4 6 6 3 7 10 2 6 8 15 18 19 21 20 21 21 21 22 19 17 17 17 16 16 16 12 14 11 11 10 10 8 8 9 9 8 7 6 6 5 4 4 3 6 2 3
3 2 3 2 8 7 8 9 1 3 7 3 4 10 17 19 22 21 23 24 20 17 17 16 16 16 14 15 13 12 13 9 6 7 9 10 9 9 9 8 7 7 7 5 6 4 5 3 4
0 7 8 7 8 11 6 7 6 2 5 9 6 3 7 15 19 20 21 20 17 14 13 17 17 17 16 16 16 15 13 11 9 9 9 8 9 9 9 8 7 7 8 7 7 5 6 4 3
11 12 10 6 9 2 3 9 9 9 8 11 10 3 2 8 14 18 19 18 18 20 19 17 18 18 18 17 16 16 15 14 13 10 8 11 9 9 10 8 6 8 9 8 7 5 4 3 4
15 12 8 5 5 5 9 7 1 8 7 7 8 4 2 7 12 16 19 18 19 22 19 18 19 18 18 17 16 14 15 10 9 10 8 9 8 8 7 8 7 9 9 8 6 7 4 4 5
10 12 5 11 14 9 6 5 12 4 2 6 6 4 5 7 11 15 17 17 17 18 19 19 18 18 18 18 15 14 13 14 11 12 10 6 9 6 6 7 8 8 8 7 7 5 5 4 5
13 3 9 12 11 10 4 4 5 3 9 8 12 3 5 9 11 13 16 17 17 18 18 18 17 18 17 16 14 13 14 14 12 10 11 11 9 8 7 6 7 9 7 7 7 5 5 5 4
12 13 12 12 6 10 9 2 5 3 8 10 12 9 3 9 12 13 13 15 17 17 17 17 17 17 17 16 15 14 13 14 12 11 11 11 10 9 8 7 8 7 7 4 7 4 6 5 3
16 19 20 12 16 9 7 11 6 5 10 10 11 10 6 5 10 12 14 15 16 17 17 17 17 17 16 15 13 14 12 12 13 13 13 10 10 10 8 8 8 7 7 6 6 7 6 5 5
Wind_Direction
215 224 296 236 223 94 82 86 110 115 129 74 74 333 70 26 5 91 129 129 138 131 135 141 127 125 125 133 131 132 131 132 133 134 127 116 102 92 82 66 54 41 36 29 17 17 18 31 38
207 239 225 273 208 101 78 93 83 89 98 107 95 109 53 74 81 126 129 145 146 129 143 141 130 130 133 136 135 138 136 132 130 126 121 107 88 75 62 58 51 37 28 13 7 7 7 6 8
242 244 269 293 6 79 105 89 99 107 118 191 108 55 50 82 121 126 132 147 141 135 139 130 138 135 137 139 140 138 136 132 128 122 115 100 72 47 38 34 39 29 11 14 11 359 351 346 344
252 198 225 76 93 61 102 109 112 117 114 84 117 88 76 117 126 142 140 147 146 136 139 135 141 140 140 140 139 142 139 135 131 124 108 85 69 48 19 26 19 22 15 12 6 350 339 334 328
242 233 148 98 89 107 100 108 111 100 81 135 168 106 106 113 125 135 142 155 147 134 139 147 148 144 144 146 147 143 138 133 131 127 105 62 44 21 10 8 8 15 9 1 348 332 326 323 319
211 257 137 109 101 107 115 125 93 94 106 107 122 118 96 125 143 144 150 155 142 132 141 142 146 146 147 140 135 136 140 136 131 117 92 58 30 23 359 350 0 359 357 343 336 329 326 319 317
311 123 90 101 112 124 123 135 99 101 117 113 126 117 119 151 151 149 142 142 147 135 151 143 147 143 140 138 142 144 140 138 125 112 68 53 32 18 353 334 341 336 336 331 329 325 321 317 312
302 168 126 131 121 107 124 124 117 98 82 114 125 154 160 158 156 155 152 154 143 157 145 147 143 134 156 141 156 152 145 138 145 104 72 11 213 232 205 253 330 327 328 325 319 324 321 314 303
279 197 107 99 92 119 144 138 133 87 140 111 46 128 134 148 158 158 158 149 156 156 155 146 151 149 149 151 152 152 156 162 158 171 122 236 24 52 217 72 316 313 325 319 321 323 301 275 244
273 111 66 24 77 117 164 159 149 167 150 130 117 120 131 149 164 166 165 160 167 160 174 154 160 155 149 127 144 94 303 177 115 77 19 230 65 4 308 325 259 265 272 234 230 257 262 275 355
119 69 75 38 343 157 158 180 168 271 189 148 158 144 149 159 165 178 176 169 171 165 166 165 170 164 153 119 116 63 12 354 178 179 224 104 299 323 216 3 95 39 205 32 328 16 13 2 4
214 115 316 50 143 146 155 144 210 271 10 80 147 153 154 168 172 178 181 177 164 168 171 177 160 170 160 144 156 148 155 350 289 143 219 181 249 265 14 357 46 307 33 7 10 4 360 2 13
299 28 298 181 167 158 141 162 11 115 91 117 145 154 162 173 173 179 186 174 178 174 181 172 164 171 170 173 173 191 173 224 213 223 171 270 254 357 282 48 28 8 20 5 5 1 1 23 333
358 318 313 145 164 160 203 173 233 116 129 136 157 167 171 174 177 175 190 181 187 184 175 170 173 175 175 179 187 185 197 217 274 305 192 234 272 298 257 95 48 37 9 359 359 352 352 12 39
297 157 132 130 157 135 245 233 226 133 156 154 171 177 175 181 181 183 187 188 188 182 178 175 181 179 179 182 181 195 225 211 178 266 248 233 244 155 303 37 5 30 14 341 2 352 360 34 76
220 241 194 110 184 133 232 269 177 166 181 173 175 181 184 186 189 186 182 189 183 184 177 193 186 184 184 188 184 211 185 231 209 196 215 211 188 223 215 199 40 28 355 3 6 15 4 63 67
200 65 158 165 201 246 224 284 83 179 196 192 185 183 190 186 190 187 183 190 179 187 182 192 191 195 183 192 192 206 189 228 208 184 188 221 205 188 259 175 93 330 358 19 3 2 35 59 89
134 202 101 328 133 242 250 259 267 198 216 217 198 190 192 199 194 189 190 186 184 183 183 193 187 198 189 183 194 200 200 224 196 211 209 216 205 207 249 157 12 290 359 10 4 5 39 338 43
252 283 286 274 295 272 262 280 277 241 217 225 215 201 195 203 192 189 189 186 185 185 184 190 193 193 194 192 199 200 194 220 213 207 214 230 239 212 241 246 200 267 333 1 345 353 22 345 50
261 280 283 304 120 253 292 284 284 265 231 231 221 214 208 186 198 197 191 191 193 190 190 187 192 191 198 196 212 210 209 213 232 209 208 224 226 229 233 278 262 311 303 347 351 351 346 4 299
227 296 323 303 318 239 286 265 246 256 253 225 228 225 210 206 193 194 197 191 192 192 194 188 190 189 196 206 197 195 219 224 221 228 209 216 221 231 233 245 282 272 280 307 309 346 329 322 228
261 61 281 275 275 321 328 307 294 234 262 246 235 223 220 206 206 191 194 199 201 192 192 191 190 191 195 194 191 197 207 212 216 221 213 201 210 224 237 235 249 250 284 308 275 313 313 322 312
336 322 305 318 274 310 184 273 20 176 289 325 296 247 216 214 206 200 193 206 198 185 188 192 191 191 197 191 206 197 219 220 229 232 219 212 188 223 229 238 229 239 240 227 271 288 303 288 283
170 227 228 242 269 258 110 287 264 151 344 334 1 322 225 219 208 209 202 198 181 192 183 189 189 193 194 196 204 208 210 214 213 209 217 217 212 197 219 232 233 237 247 234 250 261 258 260 266
208 234 247 224 203 284 130 279 264 325 343 326 319 339 228 218 209 198 205 189 186 188 194 187 188 194 195 198 200 205 209 207 221 215 218 225 212 218 192 204 219 230 228 239 248 229 255 236 245
211 264 274 272 274 324 152 251 72 329 320 292 274 264 188 207 192 193 190 192 190 194 190 190 189 195 194 197 203 200 209 209 214 219 218 232 218 210 201 185 202 220 215 223 221 223 226 195 209
167 229 269 299 256 246 260 233 260 146 56 43 359 265 182 179 190 184 184 187 186 186 191 192 191 196 196 193 197 202 203 217 208 212 221 223 228 201 198 208 194 210 210 209 211 233 196 186 208
272 31 203 213 264 266 246 264 258 357 359 357 3 327 196 175 182 192 186 187 186 189 187 191 192 198 196 193 194 200 202 208 212 206 211 211 221 216 198 208 209 204 212 208 219 214 165 179 199
197 230 235 294 297 283 281 322 72 300 315 341 332 339 270 191 185 186 193 187 187 187 184 189 193 198 194 196 190 199 204 201 210 210 210 212 221 196 200 205 202 200 195 199 214 211 151 168 158
223 216 229 221 232 229 296 283 277 316 347 326 316 324 314 197 193 195 190 193 186 185 188 185 195 197 197 188 188 199 199 208 198 211 209 202 215 197 202 190 193 185 181 186 196 193 152 160 172